Weather History for Centralia, IL

Change the Weather History Date:

Wednesday, August 22, 2012

  Actual Average (KSLO) Record (KSLO)
Temperature  
Mean Temperature 74 °F -  
Max Temperature 90 °F 86 °F 98 °F (1983)
Min Temperature 58 °F 63 °F 50 °F (1967)
Cooling Degree Days 8    
Growing Degree Days 24 (Base 50)    
Moisture  
Dew Point 56 °F    
Average Humidity 59    
Maximum Humidity 91    
Minimum Humidity 23    
Precipitation  
Precipitation 0.00 in - - ()
Sea Level Pressure  
Sea Level Pressure 30.06 in    
Wind  
Wind Speed 2 mph (East)    
Max Wind Speed 8 mph    
Max Gust Speed -    
Visibility 10 miles    
Events      
Averages and records for this station are not official NWS values.
T = Trace of Precipitation, MM = Missing Value Source: NWS Daily Summary

Daily Weather History Graph

Daily Weather History Graph

Search for Another Location

Airport:

Trip Planner

Search our weather history database for the weather conditions in past years. The results will help you decide how hot, cold, wet, or windy it might be!

Date:

Astronomy

Aug. 22, 2012 Rise Set
Actual Time 6:17 AM CDT 7:40 PM CDT
Civil Twilight 5:49 AM CDT 8:07 PM CDT
Nautical Twilight 5:16 AM CDT 8:41 PM CDT
Astronomical Twilight 4:41 AM CDT 9:15 PM CDT
Moon 11:51 AM CDT (8/22) 10:27 PM CDT (8/22)
Length of Visible Light 14h 18m
Length of Day
13h 22m
Waxing Crescent, 29% of the Moon is Illuminated
Aug 22
Waxing Crescent
Aug 24
First Quarter
Aug 31
Full
Sep 8
Last Quarter
Sep 15
New

Hourly Weather History & Observations

Time (CDT) Temp. Heat Index Dew Point Humidity Pressure Visibility Wind Dir Wind Speed Gust Speed Precip Events Conditions
12:15 AM 61.7 °F - 56.5 °F 83% 30.07 in 10.0 mi Calm Calm - N/A   Clear
12:35 AM 61.5 °F - 56.3 °F 83% 30.07 in 10.0 mi Calm Calm - N/A   Clear
12:55 AM 62.1 °F - 56.8 °F 83% 30.07 in 10.0 mi Calm Calm - N/A   Clear
1:15 AM 61.7 °F - 56.8 °F 84% 30.06 in 10.0 mi Calm Calm - N/A   Unknown
1:35 AM 61.9 °F - 56.3 °F 82% 30.05 in 10.0 mi Calm Calm - N/A   Unknown
1:55 AM 63.5 °F - 56.3 °F 77% 30.05 in 10.0 mi Calm Calm - N/A   Clear
2:15 AM 60.4 °F - 55.9 °F 85% 30.05 in 10.0 mi Calm Calm - N/A   Clear
2:35 AM 59.5 °F - 55.9 °F 88% 30.05 in 10.0 mi ENE 3.5 mph - N/A   Clear
2:55 AM 59.0 °F - 55.9 °F 90% 30.05 in 10.0 mi ENE 3.5 mph - N/A   Clear
3:15 AM 59.5 °F - 56.3 °F 89% 30.05 in 10.0 mi East 3.5 mph - N/A   Clear
3:35 AM 59.2 °F - 55.9 °F 89% 30.05 in 10.0 mi ENE 3.5 mph - N/A   Clear
3:55 AM 59.0 °F - 55.8 °F 89% 30.05 in 10.0 mi East 3.5 mph - N/A   Clear
4:15 AM 58.3 °F - 55.6 °F 91% 30.05 in 10.0 mi Calm Calm - N/A   Clear
4:35 AM 60.3 °F - 55.9 °F 86% 30.05 in 10.0 mi Calm Calm - N/A   Clear
4:55 AM 59.9 °F - 55.9 °F 87% 30.06 in 10.0 mi Calm Calm - N/A   Clear
5:15 AM 58.6 °F - 55.4 °F 89% 30.06 in 10.0 mi ENE 3.5 mph - N/A   Clear
5:35 AM 60.3 °F - 56.3 °F 87% 30.06 in 10.0 mi ENE 4.6 mph - N/A   Clear
5:55 AM 61.5 °F - 56.1 °F 82% 30.06 in 10.0 mi ENE 4.6 mph - N/A   Clear
6:15 AM 59.9 °F - 55.9 °F 87% 30.07 in 10.0 mi East 3.5 mph - N/A   Clear
6:35 AM 60.8 °F - 55.4 °F 82% 30.08 in 10.0 mi ENE 3.5 mph - N/A   Clear
6:55 AM 61.3 °F - 57.0 °F 86% 30.08 in 10.0 mi Calm Calm - N/A   Clear
7:15 AM 62.8 °F - 57.4 °F 82% 30.08 in 10.0 mi NE 3.5 mph - N/A   Clear
7:35 AM 64.8 °F - 58.1 °F 79% 30.09 in 10.0 mi East 4.6 mph - N/A   Clear
7:55 AM 66.6 °F - 58.8 °F 76% 30.09 in 10.0 mi ENE 3.5 mph - N/A   Clear
8:15 AM 68.5 °F - 59.5 °F 73% 30.09 in 10.0 mi East 4.6 mph - N/A   Clear
8:35 AM 71.1 °F - 59.7 °F 67% 30.09 in 10.0 mi East 5.8 mph - N/A   Clear
8:55 AM 73.6 °F - 59.4 °F 61% 30.09 in 10.0 mi East 5.8 mph - N/A   Clear
9:15 AM 75.4 °F - 58.3 °F 55% 30.09 in 10.0 mi ESE 5.8 mph - N/A   Clear
9:35 AM 77.4 °F - 58.8 °F 53% 30.10 in 10.0 mi ESE 6.9 mph - N/A   Clear
9:55 AM 78.8 °F - 58.5 °F 50% 30.10 in 10.0 mi East 6.9 mph - N/A   Clear
10:15 AM 80.1 °F 80.7 °F 58.5 °F 48% 30.10 in 10.0 mi ESE 5.8 mph - N/A   Clear
10:35 AM 81.9 °F 81.9 °F 58.5 °F 45% 30.10 in 10.0 mi East 8.1 mph - N/A   Clear
10:55 AM 82.8 °F 82.5 °F 57.9 °F 43% 30.10 in 10.0 mi SE 8.1 mph - N/A   Clear
11:15 AM 83.7 °F 83.3 °F 58.5 °F 42% 30.10 in 10.0 mi East 4.6 mph - N/A   Clear
11:35 AM 84.4 °F 83.5 °F 56.7 °F 39% 30.09 in 10.0 mi East 6.9 mph - N/A   Clear
11:55 AM 85.3 °F 84.3 °F 57.2 °F 38% 30.09 in 10.0 mi ENE 6.9 mph - N/A   Clear
12:15 PM 85.8 °F 84.5 °F 56.3 °F 36% 30.09 in 10.0 mi ENE 6.9 mph - N/A   Clear
12:35 PM 86.7 °F 85.3 °F 55.9 °F 35% 30.08 in 10.0 mi East 8.1 mph - N/A   Clear
12:55 PM 86.7 °F 84.9 °F 54.7 °F 33% 30.08 in 10.0 mi ESE 4.6 mph - N/A   Clear
1:15 PM 87.6 °F 85.9 °F 55.0 °F 33% 30.08 in 10.0 mi SE 6.9 mph - N/A   Clear
1:35 PM 87.3 °F - 52.3 °F 30% 30.08 in 10.0 mi Calm Calm - N/A   Clear
1:55 PM 88.3 °F 86.1 °F 53.2 °F 30% 30.07 in 10.0 mi SW 4.6 mph - N/A   Clear
2:15 PM 88.5 °F - 50.9 °F 27% 30.07 in 10.0 mi Calm Calm - N/A   Clear
2:35 PM 89.6 °F - 48.2 °F 24% 30.06 in 10.0 mi SW 3.5 mph - N/A   Clear
2:55 PM 88.9 °F - 47.7 °F 24% 30.05 in 10.0 mi SSE 3.5 mph - N/A   Clear
3:15 PM 89.1 °F - 46.9 °F 23% 30.05 in 10.0 mi Calm Calm - N/A   Clear
3:35 PM 89.1 °F - 48.0 °F 24% 30.04 in 10.0 mi SW 3.5 mph - N/A   Clear
3:55 PM 89.2 °F - 48.2 °F 24% 30.04 in 10.0 mi Calm Calm - N/A   Clear
4:15 PM 89.8 °F - 50.5 °F 26% 30.04 in 10.0 mi Calm Calm - N/A   Clear
4:35 PM 89.6 °F - 49.1 °F 25% 30.04 in 10.0 mi Calm Calm - N/A   Clear
4:55 PM 89.2 °F - 48.4 °F 24% 30.04 in 10.0 mi Calm Calm - N/A   Clear
5:15 PM 89.8 °F 87.5 °F 53.2 °F 29% 30.03 in 10.0 mi Calm Calm - N/A   Clear
5:35 PM 89.1 °F - 49.3 °F 25% 30.03 in 10.0 mi Calm Calm - N/A   Clear
5:55 PM 88.9 °F - 52.3 °F 29% 30.03 in 10.0 mi Calm Calm - N/A   Clear
6:15 PM 88.7 °F - 52.2 °F 29% 30.03 in 10.0 mi Calm Calm - N/A   Clear
6:35 PM 86.7 °F 85.4 °F 56.7 °F 36% 30.03 in 10.0 mi Calm Calm - N/A   Clear
6:55 PM 84.2 °F 83.8 °F 59.0 °F 42% 30.03 in 10.0 mi Calm Calm - N/A   Clear
7:15 PM 84.2 °F 83.3 °F 56.7 °F 39% 30.03 in 10.0 mi Calm Calm - N/A   Clear
7:35 PM 82.6 °F 82.0 °F 55.8 °F 40% 30.03 in 10.0 mi North 4.6 mph - N/A   Clear
7:55 PM 75.9 °F - 61.0 °F 60% 30.04 in 10.0 mi Calm Calm - N/A   Clear
8:15 PM 70.9 °F - 61.2 °F 71% 30.04 in 10.0 mi Calm Calm - N/A   Clear
8:35 PM 70.2 °F - 61.5 °F 74% 30.04 in 10.0 mi Calm Calm - N/A   Clear
8:55 PM 69.4 °F - 61.7 °F 76% 30.05 in 10.0 mi Calm Calm - N/A   Clear
9:15 PM 69.3 °F - 59.5 °F 71% 30.05 in 10.0 mi East 3.5 mph - N/A   Clear
9:35 PM 71.4 °F - 55.9 °F 58% 30.05 in 10.0 mi Calm Calm - N/A   Clear
9:55 PM 68.9 °F - 57.6 °F 67% 30.05 in 10.0 mi Calm Calm - N/A   Clear
10:15 PM 67.5 °F - 56.7 °F 68% 30.05 in 10.0 mi Calm Calm - N/A   Clear
10:35 PM 67.8 °F - 56.3 °F 67% 30.06 in 10.0 mi Calm Calm - N/A   Clear
10:55 PM 65.1 °F - 57.4 °F 76% 30.05 in 10.0 mi Calm Calm - N/A   Clear
11:15 PM 63.3 °F - 57.7 °F 82% 30.05 in 10.0 mi Calm Calm - N/A   Clear
11:35 PM 63.5 °F - 58.3 °F 83% 30.05 in 10.0 mi Calm Calm - N/A   Clear
11:55 PM 63.0 °F - 57.4 °F 82% 30.06 in 10.0 mi Calm Calm - N/A   Clear